ITY1319 LIRF-LIPE

Flight info

Callsign ITY1319
Flight time 0h 38m
Altitude 30000
Route SOVAN DCT AMTEL DCT OSMOX L12 LOMED
Aircraft A20N/M-SDE2E3FGHIRWXY/LB1

Departure

Time 2026-05-06 13:50
Airport Rome–Fiumicino Leonardo da Vinci International Airport (LIRF)

Arrival

Time 2026-05-06 14:28
Airport Bologna Guglielmo Marconi Airport (LIPE)
Time Latitude Longitude Altitude Speed Heading
2026-05-06 13:09 41.79723 12.25489 24 ft 0 kts 116°
2026-05-06 13:35 41.79724 12.25486 24 ft 2 kts 116°
2026-05-06 13:35 41.79731 12.25468 24 ft 2 kts 116°
2026-05-06 13:35 41.79735 12.25457 24 ft 2 kts 117°
2026-05-06 13:35 41.79738 12.25437 24 ft 2 kts 77°
2026-05-06 13:36 41.79731 12.25419 24 ft 2 kts 45°
2026-05-06 13:36 41.79724 12.25411 24 ft 0 kts 25°
2026-05-06 13:36 41.79718 12.25408 24 ft 0 kts 23°
2026-05-06 13:38 41.79722 12.25410 24 ft 0 kts 24°
2026-05-06 13:39 41.79730 12.25415 24 ft 1 kts 24°
2026-05-06 13:39 41.79745 12.25424 24 ft 2 kts 25°
2026-05-06 13:39 41.79765 12.25437 24 ft 3 kts 25°
2026-05-06 13:39 41.79790 12.25452 24 ft 4 kts 24°
2026-05-06 13:40 41.79821 12.25471 24 ft 5 kts 24°
2026-05-06 13:40 41.79857 12.25493 24 ft 6 kts 25°
2026-05-06 13:40 41.79897 12.25519 24 ft 6 kts 25°
2026-05-06 13:40 41.79943 12.25547 24 ft 7 kts 24°
2026-05-06 13:41 41.79980 12.25570 24 ft 5 kts 25°
2026-05-06 13:41 41.80005 12.25605 24 ft 6 kts 84°
2026-05-06 13:41 41.79989 12.25658 24 ft 6 kts 116°
2026-05-06 13:41 41.79969 12.25714 24 ft 6 kts 115°
2026-05-06 13:42 41.79948 12.25773 24 ft 7 kts 115°
2026-05-06 13:42 41.79929 12.25836 24 ft 7 kts 95°
2026-05-06 13:42 41.79960 12.25885 24 ft 7 kts 25°
2026-05-06 13:42 41.80010 12.25915 24 ft 8 kts 24°
2026-05-06 13:43 41.80064 12.25948 24 ft 8 kts 24°
2026-05-06 13:43 41.80122 12.25983 24 ft 9 kts 24°
2026-05-06 13:43 41.80182 12.26020 24 ft 9 kts 25°
2026-05-06 13:43 41.80248 12.26061 24 ft 11 kts 25°
2026-05-06 13:44 41.80320 12.26108 24 ft 9 kts 25°
2026-05-06 13:44 41.80388 12.26147 24 ft 11 kts 23°
2026-05-06 13:44 41.80432 12.26172 24 ft 7 kts 19°
2026-05-06 13:44 41.80489 12.26194 24 ft 9 kts 21°
2026-05-06 13:45 41.80536 12.26263 24 ft 11 kts 67°
2026-05-06 13:45 41.80597 12.26481 24 ft 9 kts 69°
2026-05-06 13:45 41.80607 12.26518 24 ft 4 kts 70°
2026-05-06 13:46 41.80622 12.26572 24 ft 7 kts 69°
2026-05-06 13:46 41.80643 12.26648 24 ft 9 kts 69°
2026-05-06 13:46 41.80669 12.26741 24 ft 11 kts 70°
2026-05-06 13:46 41.80696 12.26844 24 ft 12 kts 70°
2026-05-06 13:47 41.80722 12.26939 24 ft 5 kts 70°
2026-05-06 13:47 41.80736 12.26992 24 ft 6 kts 69°
2026-05-06 13:47 41.80766 12.27048 24 ft 8 kts 31°
2026-05-06 13:47 41.80826 12.27046 24 ft 9 kts 338°
2026-05-06 13:48 41.80895 12.27010 24 ft 11 kts 338°
2026-05-06 13:48 41.80941 12.26987 24 ft 6 kts 341°
2026-05-06 13:48 41.80965 12.26942 24 ft 7 kts 258°
2026-05-06 13:48 41.80952 12.26896 24 ft 0 kts 249°
2026-05-06 13:49 41.80949 12.26886 24 ft 3 kts 250°
2026-05-06 13:49 41.80861 12.26567 24 ft 80 kts 248°
2026-05-06 13:49 41.80574 12.25528 25 ft 154 kts 249°
2026-05-06 13:49 41.80188 12.24067 548 ft 172 kts 248°
2026-05-06 13:50 41.79792 12.22634 1532 ft 166 kts 245°
2026-05-06 13:50 41.79385 12.21239 2302 ft 165 kts 244°
2026-05-06 13:50 41.79058 12.19679 2799 ft 188 kts 266°
2026-05-06 13:50 41.79563 12.17971 3354 ft 213 kts 303°
2026-05-06 13:51 41.80518 12.16451 4093 ft 221 kts 308°
2026-05-06 13:51 41.81541 12.14889 4932 ft 226 kts 307°
2026-05-06 13:51 41.82568 12.13262 5764 ft 233 kts 306°
2026-05-06 13:51 41.83573 12.11621 6757 ft 232 kts 307°
2026-05-06 13:52 41.84800 12.10247 7679 ft 239 kts 330°
2026-05-06 13:52 41.86411 12.09474 8380 ft 256 kts 341°
2026-05-06 13:52 41.88199 12.08842 8972 ft 274 kts 342°
2026-05-06 13:52 41.90104 12.08184 9546 ft 292 kts 342°
2026-05-06 13:53 41.92078 12.07483 10326 ft 300 kts 341°
2026-05-06 13:53 41.94127 12.06757 10961 ft 315 kts 343°
2026-05-06 13:53 41.96341 12.06172 11455 ft 335 kts 348°
2026-05-06 13:53 41.98718 12.05822 12136 ft 347 kts 352°
2026-05-06 13:54 42.01127 12.05586 13011 ft 351 kts 353°
2026-05-06 13:54 42.03554 12.05364 13888 ft 353 kts 353°
2026-05-06 13:54 42.05989 12.05136 14709 ft 357 kts 353°
2026-05-06 13:54 42.08498 12.04895 15483 ft 363 kts 352°
2026-05-06 13:55 42.11039 12.04649 16194 ft 369 kts 352°
2026-05-06 13:55 42.13594 12.04399 16902 ft 374 kts 353°
2026-05-06 13:55 42.16194 12.04145 17606 ft 378 kts 353°
2026-05-06 13:55 42.18798 12.03806 18281 ft 382 kts 349°
2026-05-06 13:56 42.21447 12.03268 18942 ft 385 kts 347°
2026-05-06 13:56 42.24105 12.02671 19618 ft 389 kts 346°
2026-05-06 13:56 42.26776 12.02058 20266 ft 393 kts 346°
2026-05-06 13:56 42.29455 12.01445 20932 ft 396 kts 346°
2026-05-06 13:57 42.32190 12.00824 21578 ft 400 kts 346°
2026-05-06 13:57 42.34925 12.00206 22202 ft 404 kts 346°
2026-05-06 13:57 42.37730 11.99574 22787 ft 409 kts 346°
2026-05-06 13:57 42.40527 11.98946 23378 ft 413 kts 346°
2026-05-06 13:58 42.43398 11.98301 23980 ft 418 kts 345°
2026-05-06 13:58 42.46270 11.97656 24558 ft 422 kts 345°
2026-05-06 13:58 42.49165 11.97003 25131 ft 426 kts 345°
2026-05-06 13:58 42.52088 11.96343 25668 ft 430 kts 345°
2026-05-06 13:59 42.55033 11.95675 26198 ft 434 kts 345°
2026-05-06 13:59 42.58033 11.94994 26712 ft 437 kts 344°
2026-05-06 13:59 42.61037 11.94311 27233 ft 441 kts 344°
2026-05-06 13:59 42.64062 11.93623 27733 ft 443 kts 344°
2026-05-06 14:00 42.67102 11.92932 28281 ft 444 kts 344°
2026-05-06 14:00 42.70118 11.92246 28905 ft 443 kts 344°
2026-05-06 14:00 42.73190 11.91545 29410 ft 445 kts 344°
2026-05-06 14:00 42.76221 11.90852 29812 ft 448 kts 343°
2026-05-06 14:01 42.79304 11.90091 29955 ft 448 kts 341°
2026-05-06 14:01 42.82279 11.89050 29962 ft 443 kts 336°
2026-05-06 14:01 42.87940 11.85985 29973 ft 434 kts 326°
2026-05-06 14:02 42.93259 11.82124 29961 ft 434 kts 324°
2026-05-06 14:02 42.98568 11.78195 29961 ft 435 kts 324°
2026-05-06 14:03 43.03904 11.74264 29955 ft 435 kts 324°
2026-05-06 14:03 43.09219 11.70352 29951 ft 435 kts 325°
2026-05-06 14:04 43.14550 11.66422 29949 ft 435 kts 324°
2026-05-06 14:04 43.19834 11.62439 29944 ft 433 kts 322°
2026-05-06 14:05 43.24780 11.57841 29937 ft 430 kts 315°
2026-05-06 14:05 43.29438 11.52706 29938 ft 429 kts 314°
2026-05-06 14:06 43.34047 11.47537 29930 ft 430 kts 314°
2026-05-06 14:06 43.38693 11.42328 29932 ft 430 kts 314°
2026-05-06 14:07 43.43319 11.37139 29752 ft 427 kts 314°
2026-05-06 14:07 43.45592 11.34585 28918 ft 430 kts 313°
2026-05-06 14:07 43.47942 11.31935 27874 ft 436 kts 314°
2026-05-06 14:08 43.50272 11.29311 27224 ft 433 kts 314°
2026-05-06 14:08 43.52573 11.26722 26679 ft 428 kts 314°
2026-05-06 14:08 43.54847 11.24163 26149 ft 423 kts 314°
2026-05-06 14:08 43.57121 11.21599 25628 ft 418 kts 314°
2026-05-06 14:09 43.59332 11.19102 25123 ft 414 kts 314°
2026-05-06 14:09 43.61563 11.16577 24602 ft 410 kts 314°
2026-05-06 14:09 43.63744 11.14108 24087 ft 406 kts 314°
2026-05-06 14:09 43.65892 11.11670 23582 ft 403 kts 314°
2026-05-06 14:10 43.68042 11.09230 23079 ft 399 kts 314°
2026-05-06 14:10 43.70194 11.06783 22575 ft 396 kts 314°
2026-05-06 14:10 43.72302 11.04382 22080 ft 393 kts 314°
2026-05-06 14:10 43.74400 11.01992 21585 ft 390 kts 314°
2026-05-06 14:11 43.76483 10.99615 21094 ft 388 kts 314°
2026-05-06 14:11 43.78552 10.97254 20597 ft 385 kts 314°
2026-05-06 14:11 43.80611 10.94910 20107 ft 383 kts 315°
2026-05-06 14:11 43.82872 10.92995 19596 ft 393 kts 335°
2026-05-06 14:12 43.85585 10.92411 19118 ft 402 kts 359°
2026-05-06 14:12 43.88315 10.93256 18657 ft 405 kts 17°
2026-05-06 14:12 43.90952 10.94585 18184 ft 403 kts 18°
2026-05-06 14:12 43.93573 10.95926 17702 ft 401 kts 18°
2026-05-06 14:13 43.96177 10.97223 17222 ft 398 kts 17°
2026-05-06 14:13 43.98777 10.98483 16725 ft 396 kts 17°
2026-05-06 14:13 44.01371 10.99722 16245 ft 393 kts 17°
2026-05-06 14:13 44.03933 11.01022 15781 ft 392 kts 19°
2026-05-06 14:14 44.06479 11.02432 15269 ft 391 kts 20°
2026-05-06 14:14 44.08984 11.03845 14783 ft 389 kts 20°
2026-05-06 14:14 44.11454 11.05242 14318 ft 386 kts 20°
2026-05-06 14:14 44.13971 11.06660 13830 ft 384 kts 20°
2026-05-06 14:15 44.16425 11.08041 13365 ft 381 kts 20°
2026-05-06 14:15 44.18885 11.09422 12886 ft 379 kts 20°
2026-05-06 14:15 44.21318 11.10790 12418 ft 376 kts 20°
2026-05-06 14:15 44.23722 11.12144 11953 ft 373 kts 20°
2026-05-06 14:16 44.26115 11.13491 11492 ft 370 kts 20°
2026-05-06 14:16 44.28480 11.14824 11031 ft 368 kts 20°
2026-05-06 14:16 44.30840 11.16154 10580 ft 364 kts 20°
2026-05-06 14:16 44.33174 11.17474 10258 ft 356 kts 20°
2026-05-06 14:17 44.35436 11.18718 10098 ft 342 kts 15°
2026-05-06 14:17 44.37713 11.19070 9867 ft 322 kts 346°
2026-05-06 14:17 44.39668 11.17952 9671 ft 296 kts 316°
2026-05-06 14:17 44.41027 11.15917 9457 ft 279 kts 301°
2026-05-06 14:18 44.42167 11.13733 9094 ft 277 kts 300°
2026-05-06 14:18 44.43308 11.11594 8688 ft 277 kts 301°
2026-05-06 14:18 44.44498 11.09469 8312 ft 276 kts 302°
2026-05-06 14:18 44.45702 11.07386 7919 ft 275 kts 303°
2026-05-06 14:19 44.46920 11.05324 7528 ft 274 kts 304°
2026-05-06 14:19 44.48122 11.03305 7161 ft 272 kts 304°
2026-05-06 14:19 44.49349 11.01260 6766 ft 272 kts 304°
2026-05-06 14:19 44.50555 10.99258 6394 ft 270 kts 304°
2026-05-06 14:20 44.51758 10.97261 6021 ft 268 kts 305°
2026-05-06 14:20 44.52958 10.95260 5638 ft 268 kts 306°
2026-05-06 14:20 44.54153 10.93267 5246 ft 267 kts 306°
2026-05-06 14:20 44.55356 10.91311 4990 ft 262 kts 311°
2026-05-06 14:21 44.56888 10.90069 4959 ft 256 kts 346°
2026-05-06 14:21 44.58644 10.90268 4715 ft 258 kts 20°
2026-05-06 14:21 44.60237 10.91431 4460 ft 257 kts 30°
2026-05-06 14:21 44.61737 10.92718 4203 ft 255 kts 30°
2026-05-06 14:22 44.63279 10.93969 3953 ft 253 kts 30°
2026-05-06 14:22 44.64598 10.95513 3737 ft 247 kts 59°
2026-05-06 14:22 44.65029 10.97749 3495 ft 236 kts 99°
2026-05-06 14:22 44.64467 10.99851 3273 ft 225 kts 124°
2026-05-06 14:23 44.63620 11.01671 3054 ft 220 kts 126°
2026-05-06 14:23 44.62810 11.03452 2845 ft 216 kts 124°
2026-05-06 14:23 44.62080 11.05265 2625 ft 213 kts 120°
2026-05-06 14:23 44.61403 11.07089 2482 ft 205 kts 119°
2026-05-06 14:24 44.60785 11.08804 2505 ft 192 kts 120°
2026-05-06 14:24 44.60210 11.10408 2545 ft 173 kts 120°
2026-05-06 14:24 44.59710 11.11801 2499 ft 152 kts 120°
2026-05-06 14:24 44.59247 11.13086 2342 ft 140 kts 120°
2026-05-06 14:25 44.58815 11.14277 2146 ft 136 kts 121°
2026-05-06 14:25 44.58387 11.15454 1964 ft 136 kts 120°
2026-05-06 14:25 44.57971 11.16641 1784 ft 135 kts 119°
2026-05-06 14:25 44.57550 11.17815 1610 ft 134 kts 120°
2026-05-06 14:26 44.57128 11.18976 1450 ft 134 kts 120°
2026-05-06 14:26 44.56705 11.20137 1271 ft 134 kts 120°
2026-05-06 14:26 44.56288 11.21291 1096 ft 132 kts 119°
2026-05-06 14:26 44.55875 11.22426 950 ft 131 kts 119°
2026-05-06 14:27 44.55461 11.23566 738 ft 131 kts 119°
2026-05-06 14:27 44.55046 11.24710 571 ft 131 kts 119°
2026-05-06 14:27 44.54637 11.25844 414 ft 131 kts 119°
2026-05-06 14:27 44.54231 11.26975 247 ft 130 kts 118°
2026-05-06 14:28 44.53820 11.28092 125 ft 127 kts 118°
2026-05-06 14:28 44.53464 11.29083 120 ft 90 kts 118°
2026-05-06 14:28 44.53265 11.29647 126 ft 35 kts 116°
2026-05-06 14:28 44.53182 11.29873 127 ft 24 kts 118°
2026-05-06 14:29 44.53114 11.30066 127 ft 18 kts 116°
2026-05-06 14:29 44.53054 11.30218 126 ft 11 kts 125°
2026-05-06 14:29 44.52987 11.30228 126 ft 11 kts 240°
2026-05-06 14:29 44.52980 11.30126 126 ft 9 kts 267°
2026-05-06 14:30 44.52977 11.30031 127 ft 10 kts 266°
2026-05-06 14:30 44.52974 11.29927 127 ft 11 kts 275°
2026-05-06 14:30 44.52998 11.29823 127 ft 10 kts 270°
2026-05-06 14:30 44.52978 11.29768 127 ft 5 kts 247°
2026-05-06 14:31 44.52986 11.29717 127 ft 6 kts 304°
2026-05-06 14:31 44.53013 11.29656 127 ft 8 kts 296°
2026-05-06 14:31 44.53042 11.29575 127 ft 10 kts 296°
2026-05-06 14:31 44.53073 11.29490 127 ft 7 kts 296°
2026-05-06 14:32 44.53096 11.29425 127 ft 5 kts 283°
2026-05-06 14:32 44.53075 11.29382 127 ft 3 kts 201°
2026-05-06 14:32 44.53069 11.29380 127 ft 1 kts 191°
2026-05-06 14:32 44.53059 11.29375 127 ft 0 kts 204°